Time,TemperatureF,DewpointF,PressureIn,WindDirection,WindDirectionDegrees,WindSpeedMPH,WindSpeedGustMPH,Humidity,HourlyPrecipIn,Conditions,Clouds,dailyrainin,SoftwareType,DateUTC
2013-12-05 00:00:00,44.2,40.9,30.23,SE,131,10.0,10.0,88,0.00,,,0.00,Wunderground v.1.15,2013-12-05 05:00:00,
2013-12-05 00:05:00,44.3,41.3,30.22,ESE,122,11.0,11.0,89,0.00,,,0.00,Wunderground v.1.15,2013-12-05 05:05:00,
2013-12-05 00:10:00,44.5,41.2,30.23,SSE,155,11.0,11.0,88,0.00,,,0.00,Wunderground v.1.15,2013-12-05 05:10:00,
2013-12-05 00:15:00,44.6,41.6,30.23,SE,139,11.0,11.0,89,0.00,,,0.00,Wunderground v.1.15,2013-12-05 05:15:00,
2013-12-05 00:20:00,44.6,41.6,30.23,SSE,165,10.0,10.0,89,0.00,,,0.00,Wunderground v.1.15,2013-12-05 05:20:00,
2013-12-05 00:25:00,45.0,42.2,30.22,SSE,155,10.0,10.0,90,0.00,,,0.00,Wunderground v.1.15,2013-12-05 05:25:00,
2013-12-05 00:30:00,45.2,42.2,30.22,SSE,163,11.0,11.0,89,0.00,,,0.00,Wunderground v.1.15,2013-12-05 05:30:00,
2013-12-05 00:35:00,45.3,42.2,30.22,SSE,157,11.0,11.0,89,0.00,,,0.00,Wunderground v.1.15,2013-12-05 05:35:00,
2013-12-05 00:40:00,45.3,42.5,30.22,SE,134,10.0,14.0,90,0.00,,,0.00,Wunderground v.1.15,2013-12-05 05:40:00,
2013-12-05 00:45:00,45.5,42.4,30.21,South,170,10.0,14.0,89,0.00,,,0.00,Wunderground v.1.15,2013-12-05 05:45:00,
2013-12-05 00:50:00,45.4,42.3,30.21,South,172,9.0,9.0,89,0.00,,,0.00,Wunderground v.1.15,2013-12-05 05:50:00,
2013-12-05 00:55:00,45.3,42.2,30.21,SSE,157,9.0,10.0,89,0.00,,,0.00,Wunderground v.1.15,2013-12-05 05:55:00,
2013-12-05 01:00:00,45.5,42.7,30.21,South,175,11.0,13.0,90,0.00,,,0.00,Wunderground v.1.15,2013-12-05 06:00:00,
2013-12-05 01:10:00,45.7,42.9,30.20,SSE,160,11.0,19.0,90,0.00,,,0.00,Wunderground v.1.15,2013-12-05 06:10:00,
2013-12-05 01:15:00,45.8,42.7,30.19,SSE,158,12.0,19.0,89,0.00,,,0.00,Wunderground v.1.15,2013-12-05 06:15:00,
2013-12-05 01:20:00,46.1,43.3,30.19,SSE,148,13.0,13.0,90,0.00,,,0.00,Wunderground v.1.15,2013-12-05 06:20:00,
2013-12-05 01:25:00,46.3,43.2,30.19,SSE,167,14.0,14.0,89,0.00,,,0.00,Wunderground v.1.15,2013-12-05 06:25:00,
2013-12-05 01:30:00,46.3,43.2,30.19,South,174,13.0,13.0,89,0.00,,,0.00,Wunderground v.1.15,2013-12-05 06:30:00,
2013-12-05 01:35:00,46.4,43.3,30.18,South,175,12.0,19.0,89,0.00,,,0.00,Wunderground v.1.15,2013-12-05 06:35:00,
2013-12-05 01:40:00,46.5,43.4,30.18,South,183,13.0,19.0,89,0.00,,,0.00,Wunderground v.1.15,2013-12-05 06:40:00,
2013-12-05 01:45:00,46.5,43.4,30.18,SSE,160,13.0,19.0,89,0.00,,,0.00,Wunderground v.1.15,2013-12-05 06:45:00,
2013-12-05 01:50:00,46.6,43.5,30.18,SSE,148,13.0,19.0,89,0.00,,,0.00,Wunderground v.1.15,2013-12-05 06:50:00,
2013-12-05 01:55:00,46.7,43.6,30.18,South,179,14.0,19.0,89,0.00,,,0.00,Wunderground v.1.15,2013-12-05 06:55:00,
2013-12-05 02:00:00,46.8,43.4,30.18,SSE,147,14.0,14.0,88,0.00,,,0.00,Wunderground v.1.15,2013-12-05 07:00:00,
2013-12-05 02:05:00,46.8,43.7,30.18,South,184,14.0,19.0,89,0.00,,,0.00,Wunderground v.1.15,2013-12-05 07:05:00,
2013-12-05 02:15:00,47.0,43.9,30.18,SSE,157,14.0,19.0,89,0.00,,,0.00,Wunderground v.1.15,2013-12-05 07:15:00,
2013-12-05 02:20:00,47.2,44.1,30.18,South,184,14.0,19.0,89,0.00,,,0.00,Wunderground v.1.15,2013-12-05 07:20:00,
2013-12-05 02:25:00,47.3,43.9,30.18,South,174,14.0,19.0,88,0.00,,,0.00,Wunderground v.1.15,2013-12-05 07:25:00,
2013-12-05 02:30:00,47.4,44.0,30.18,South,185,13.0,19.0,88,0.00,,,0.00,Wunderground v.1.15,2013-12-05 07:30:00,
2013-12-05 02:35:00,47.3,43.9,30.18,South,171,12.0,19.0,88,0.00,,,0.00,Wunderground v.1.15,2013-12-05 07:35:00,
2013-12-05 02:45:00,47.6,44.2,30.18,SSE,158,12.0,12.0,88,0.00,,,0.00,Wunderground v.1.15,2013-12-05 07:45:00,
2013-12-05 02:50:00,47.7,44.6,30.17,South,187,12.0,12.0,89,0.00,,,0.00,Wunderground v.1.15,2013-12-05 07:50:00,
2013-12-05 02:55:00,47.8,44.7,30.17,South,186,12.0,20.0,89,0.00,,,0.00,Wunderground v.1.15,2013-12-05 07:55:00,
2013-12-05 03:00:00,47.9,44.5,30.17,SSE,159,12.0,12.0,88,0.00,,,0.00,Wunderground v.1.15,2013-12-05 08:00:00,
2013-12-05 03:05:00,48.1,44.7,30.16,South,178,13.0,22.0,88,0.00,,,0.00,Wunderground v.1.15,2013-12-05 08:05:00,
2013-12-05 03:10:00,48.3,44.9,30.17,SW,219,15.0,15.0,88,0.00,,,0.00,Wunderground v.1.15,2013-12-05 08:10:00,
2013-12-05 03:20:00,48.4,45.0,30.16,South,169,13.0,13.0,88,0.00,,,0.00,Wunderground v.1.15,2013-12-05 08:20:00,
2013-12-05 03:25:00,48.5,45.1,30.15,SSE,157,12.0,19.0,88,0.00,,,0.00,Wunderground v.1.15,2013-12-05 08:25:00,
2013-12-05 03:30:00,48.5,45.1,30.15,SSE,150,13.0,13.0,88,0.00,,,0.00,Wunderground v.1.15,2013-12-05 08:30:00,
2013-12-05 03:35:00,48.4,45.0,30.15,SE,138,14.0,14.0,88,0.00,,,0.00,Wunderground v.1.15,2013-12-05 08:35:00,
2013-12-05 03:40:00,48.4,45.0,30.14,SSW,196,13.0,13.0,88,0.00,,,0.00,Wunderground v.1.15,2013-12-05 08:40:00,
2013-12-05 03:50:00,48.5,45.1,30.14,South,182,14.0,14.0,88,0.00,,,0.00,Wunderground v.1.15,2013-12-05 08:50:00,
2013-12-05 03:55:00,48.5,45.1,30.13,South,171,14.0,19.0,88,0.00,,,0.00,Wunderground v.1.15,2013-12-05 08:55:00,
2013-12-05 04:00:00,48.4,45.0,30.14,South,172,13.0,19.0,88,0.00,,,0.00,Wunderground v.1.15,2013-12-05 09:00:00,
2013-12-05 04:05:00,48.5,45.4,30.14,South,183,12.0,19.0,89,0.00,,,0.00,Wunderground v.1.15,2013-12-05 09:05:00,
2013-12-05 04:10:00,48.5,45.1,30.14,SSW,209,12.0,19.0,88,0.00,,,0.00,Wunderground v.1.15,2013-12-05 09:10:00,
2013-12-05 04:15:00,48.6,45.2,30.14,SSW,192,12.0,19.0,88,0.00,,,0.00,Wunderground v.1.15,2013-12-05 09:15:00,
2013-12-05 04:25:00,48.9,45.5,30.13,SSW,194,14.0,15.0,88,0.00,,,0.00,Wunderground v.1.15,2013-12-05 09:25:00,
2013-12-05 04:30:00,48.8,45.4,30.14,SSE,155,14.0,14.0,88,0.00,,,0.00,Wunderground v.1.15,2013-12-05 09:30:00,
2013-12-05 04:35:00,48.9,45.5,30.13,SSE,150,13.0,19.0,88,0.00,,,0.00,Wunderground v.1.15,2013-12-05 09:35:00,
2013-12-05 04:40:00,48.9,45.5,30.13,SE,143,13.0,13.0,88,0.00,,,0.00,Wunderground v.1.15,2013-12-05 09:40:00,
2013-12-05 04:45:00,48.9,45.5,30.13,South,169,14.0,14.0,88,0.00,,,0.00,Wunderground v.1.15,2013-12-05 09:45:00,
2013-12-05 04:55:00,48.7,45.3,30.13,South,189,12.0,14.0,88,0.00,,,0.00,Wunderground v.1.15,2013-12-05 09:55:00,
2013-12-05 05:00:00,48.7,45.6,30.13,SSE,163,12.0,12.0,89,0.00,,,0.00,Wunderground v.1.15,2013-12-05 10:00:00,
2013-12-05 05:05:00,48.8,45.4,30.13,SSE,163,12.0,13.0,88,0.00,,,0.00,Wunderground v.1.15,2013-12-05 10:05:00,
2013-12-05 05:10:00,48.7,45.3,30.12,SSE,167,12.0,19.0,88,0.00,,,0.00,Wunderground v.1.15,2013-12-05 10:10:00,
2013-12-05 05:15:00,48.8,45.4,30.12,South,186,12.0,19.0,88,0.00,,,0.00,Wunderground v.1.15,2013-12-05 10:15:00,
2013-12-05 05:20:00,48.8,45.7,30.12,SSE,166,13.0,19.0,89,0.00,,,0.00,Wunderground v.1.15,2013-12-05 10:20:00,
2013-12-05 05:30:00,49.1,45.7,30.13,South,185,13.0,13.0,88,0.00,,,0.00,Wunderground v.1.15,2013-12-05 10:30:00,
2013-12-05 05:35:00,49.1,46.0,30.13,SSE,166,13.0,19.0,89,0.00,,,0.00,Wunderground v.1.15,2013-12-05 10:35:00,
2013-12-05 05:40:00,49.2,45.8,30.12,SSW,199,13.0,13.0,88,0.00,,,0.00,Wunderground v.1.15,2013-12-05 10:40:00,
2013-12-05 05:45:00,49.2,46.1,30.12,SSW,202,13.0,16.0,89,0.00,,,0.00,Wunderground v.1.15,2013-12-05 10:45:00,
2013-12-05 05:50:00,49.2,45.8,30.12,South,179,13.0,13.0,88,0.00,,,0.00,Wunderground v.1.15,2013-12-05 10:50:00,
2013-12-05 05:55:00,49.4,46.0,30.12,SSW,213,13.0,19.0,88,0.00,,,0.00,Wunderground v.1.15,2013-12-05 10:55:00,
2013-12-05 06:00:00,49.4,46.0,30.12,South,190,13.0,13.0,88,0.00,,,0.00,Wunderground v.1.15,2013-12-05 11:00:00,
2013-12-05 06:10:00,49.5,46.1,30.12,SSW,199,13.0,13.0,88,0.00,,,0.00,Wunderground v.1.15,2013-12-05 11:10:00,
2013-12-05 06:15:00,49.6,46.2,30.12,SSE,165,15.0,15.0,88,0.00,,,0.00,Wunderground v.1.15,2013-12-05 11:15:00,
2013-12-05 06:20:00,49.5,46.1,30.11,South,173,14.0,14.0,88,0.00,,,0.00,Wunderground v.1.15,2013-12-05 11:20:00,
2013-12-05 06:30:00,49.5,46.1,30.12,South,187,12.0,12.0,88,0.00,,,0.00,Wunderground v.1.15,2013-12-05 11:30:00,
2013-12-05 06:35:00,49.5,46.1,30.11,South,175,12.0,12.0,88,0.00,,,0.00,Wunderground v.1.15,2013-12-05 11:35:00,
2013-12-05 06:40:00,49.5,46.1,30.11,South,183,14.0,14.0,88,0.00,,,0.00,Wunderground v.1.15,2013-12-05 11:40:00,
2013-12-05 06:45:00,49.7,46.6,30.11,SSE,152,14.0,14.0,89,0.00,,,0.00,Wunderground v.1.15,2013-12-05 11:45:00,
2013-12-05 06:50:00,49.7,46.3,30.11,South,184,14.0,14.0,88,0.00,,,0.00,Wunderground v.1.15,2013-12-05 11:50:00,
2013-12-05 06:55:00,49.7,46.3,30.11,SW,230,13.0,14.0,88,0.00,,,0.00,Wunderground v.1.15,2013-12-05 11:55:00,
2013-12-05 07:05:00,49.8,46.4,30.11,SSE,167,13.0,28.0,88,0.00,,,0.00,Wunderground v.1.15,2013-12-05 12:05:00,
2013-12-05 07:10:00,49.8,46.4,30.11,SSE,166,14.0,14.0,88,0.00,,,0.00,Wunderground v.1.15,2013-12-05 12:10:00,
2013-12-05 07:15:00,49.9,46.5,30.12,SSW,193,14.0,17.0,88,0.00,,,0.00,Wunderground v.1.15,2013-12-05 12:15:00,
2013-12-05 07:20:00,49.9,46.5,30.12,SSW,205,13.0,13.0,88,0.00,,,0.00,Wunderground v.1.15,2013-12-05 12:20:00,
2013-12-05 07:25:00,49.9,46.8,30.12,SSW,203,11.0,28.0,89,0.00,,,0.00,Wunderground v.1.15,2013-12-05 12:25:00,
2013-12-05 07:35:00,50.1,46.7,30.12,SSE,162,11.0,28.0,88,0.00,,,0.00,Wunderground v.1.15,2013-12-05 12:35:00,
2013-12-05 07:40:00,50.3,46.9,30.13,South,191,11.0,11.0,88,0.00,,,0.00,Wunderground v.1.15,2013-12-05 12:40:00,
2013-12-05 07:45:00,50.3,46.9,30.13,South,184,11.0,28.0,88,0.00,,,0.00,Wunderground v.1.15,2013-12-05 12:45:00,
2013-12-05 07:50:00,50.4,47.0,30.13,SSW,197,11.0,11.0,88,0.00,,,0.00,Wunderground v.1.15,2013-12-05 12:50:00,
2013-12-05 07:55:00,50.5,47.1,30.13,South,180,12.0,14.0,88,0.00,,,0.00,Wunderground v.1.15,2013-12-05 12:55:00,
2013-12-05 08:00:00,50.6,47.2,30.13,SW,224,11.0,28.0,88,0.00,,,0.00,Wunderground v.1.15,2013-12-05 13:00:00,
2013-12-05 08:10:00,50.8,47.4,30.13,SSW,203,10.0,10.0,88,0.00,,,0.00,Wunderground v.1.15,2013-12-05 13:10:00,
2013-12-05 08:15:00,50.8,47.4,30.13,South,175,10.0,28.0,88,0.00,,,0.00,Wunderground v.1.15,2013-12-05 13:15:00,
2013-12-05 08:20:00,50.9,47.5,30.13,South,182,10.0,28.0,88,0.00,,,0.00,Wunderground v.1.15,2013-12-05 13:20:00,
2013-12-05 08:25:00,51.0,47.6,30.13,SSW,198,10.0,28.0,88,0.00,,,0.00,Wunderground v.1.15,2013-12-05 13:25:00,
2013-12-05 08:30:00,51.1,47.7,30.13,South,182,11.0,28.0,88,0.00,,,0.00,Wunderground v.1.15,2013-12-05 13:30:00,
2013-12-05 08:40:00,51.4,48.0,30.13,SSW,208,12.0,12.0,88,0.00,,,0.00,Wunderground v.1.15,2013-12-05 13:40:00,
2013-12-05 08:45:00,51.6,48.2,30.13,South,175,12.0,28.0,88,0.00,,,0.00,Wunderground v.1.15,2013-12-05 13:45:00,
2013-12-05 08:50:00,51.7,48.0,30.13,SSW,199,10.0,28.0,87,0.00,,,0.00,Wunderground v.1.15,2013-12-05 13:50:00,
2013-12-05 08:55:00,51.9,48.2,30.13,SSW,208,10.0,28.0,87,0.00,,,0.00,Wunderground v.1.15,2013-12-05 13:55:00,
2013-12-05 09:00:00,52.0,48.3,30.13,South,184,10.0,28.0,87,0.00,,,0.00,Wunderground v.1.15,2013-12-05 14:00:00,
2013-12-05 09:05:00,52.0,48.3,30.13,SE,146,10.0,28.0,87,0.00,,,0.00,Wunderground v.1.15,2013-12-05 14:05:00,
2013-12-05 09:15:00,52.3,48.5,30.13,South,171,12.0,12.0,87,0.00,,,0.00,Wunderground v.1.15,2013-12-05 14:15:00,
2013-12-05 09:20:00,52.4,48.3,30.13,SSW,200,11.0,28.0,86,0.00,,,0.00,Wunderground v.1.15,2013-12-05 14:20:00,
2013-12-05 09:25:00,52.4,48.6,30.13,SSE,167,10.0,28.0,87,0.00,,,0.00,Wunderground v.1.15,2013-12-05 14:25:00,
2013-12-05 09:30:00,52.5,48.7,30.13,SSE,164,11.0,11.0,87,0.00,,,0.00,Wunderground v.1.15,2013-12-05 14:30:00,
2013-12-05 09:35:00,52.5,48.7,30.13,South,188,10.0,28.0,87,0.00,,,0.00,Wunderground v.1.15,2013-12-05 14:35:00,
2013-12-05 09:45:00,52.5,48.4,30.13,SSE,165,10.0,28.0,86,0.00,,,0.00,Wunderground v.1.15,2013-12-05 14:45:00,
2013-12-05 09:50:00,52.5,48.7,30.13,South,172,11.0,28.0,87,0.00,,,0.00,Wunderground v.1.15,2013-12-05 14:50:00,
2013-12-05 09:55:00,52.5,48.7,30.13,SSW,198,11.0,28.0,87,0.00,,,0.00,Wunderground v.1.15,2013-12-05 14:55:00,
2013-12-05 10:00:00,52.6,48.8,30.13,SSW,207,12.0,28.0,87,0.00,,,0.00,Wunderground v.1.15,2013-12-05 15:00:00,
2013-12-05 10:05:00,52.7,48.9,30.13,South,188,12.0,28.0,87,0.00,,,0.00,Wunderground v.1.15,2013-12-05 15:05:00,
2013-12-05 10:10:00,52.8,49.0,30.13,SSE,161,11.0,11.0,87,0.00,,,0.00,Wunderground v.1.15,2013-12-05 15:10:00,
2013-12-05 10:15:00,52.8,49.0,30.12,South,169,10.0,28.0,87,0.00,,,0.00,Wunderground v.1.15,2013-12-05 15:15:00,
2013-12-05 10:20:00,52.7,48.9,30.12,SSE,156,10.0,10.0,87,0.00,,,0.00,Wunderground v.1.15,2013-12-05 15:20:00,
2013-12-05 10:25:00,52.7,48.9,30.12,SE,138,10.0,14.0,87,0.00,,,0.00,Wunderground v.1.15,2013-12-05 15:25:00,
2013-12-05 10:30:00,52.8,49.0,30.13,SSE,153,10.0,10.0,87,0.00,,,0.00,Wunderground v.1.15,2013-12-05 15:30:00,
2013-12-05 10:35:00,52.9,49.1,30.13,SSE,154,9.0,28.0,87,0.00,,,0.00,Wunderground v.1.15,2013-12-05 15:35:00,
2013-12-05 10:40:00,53.0,49.2,30.13,SSE,159,9.0,28.0,87,0.00,,,0.00,Wunderground v.1.15,2013-12-05 15:40:00,
2013-12-05 10:50:00,53.2,49.4,30.12,SSE,167,8.0,28.0,87,0.00,,,0.00,Wunderground v.1.15,2013-12-05 15:50:00,
2013-12-05 10:55:00,53.3,49.5,30.12,SSE,166,9.0,28.0,87,0.00,,,0.00,Wunderground v.1.15,2013-12-05 15:55:00,
2013-12-05 11:00:00,53.6,49.8,30.12,SSE,166,9.0,9.0,87,0.00,,,0.00,Wunderground v.1.15,2013-12-05 16:00:00,
2013-12-05 11:05:00,53.8,50.0,30.11,SSE,161,8.0,28.0,87,0.00,,,0.00,Wunderground v.1.15,2013-12-05 16:05:00,
2013-12-05 11:10:00,54.0,50.2,30.11,SSW,192,9.0,28.0,87,0.00,,,0.00,Wunderground v.1.15,2013-12-05 16:10:00,
2013-12-05 11:20:00,54.4,50.3,30.11,WSW,250,9.0,28.0,86,0.00,,,0.00,Wunderground v.1.15,2013-12-05 16:20:00,
2013-12-05 11:25:00,54.6,50.5,30.10,South,182,9.0,28.0,86,0.00,,,0.00,Wunderground v.1.15,2013-12-05 16:25:00,
2013-12-05 11:30:00,55.0,50.6,30.09,South,187,9.0,28.0,85,0.00,,,0.00,Wunderground v.1.15,2013-12-05 16:30:00,
2013-12-05 11:35:00,55.2,50.8,30.10,South,182,10.0,28.0,85,0.00,,,0.00,Wunderground v.1.15,2013-12-05 16:35:00,
2013-12-05 11:40:00,55.4,50.6,30.10,South,177,11.0,11.0,84,0.00,,,0.00,Wunderground v.1.15,2013-12-05 16:40:00,
2013-12-05 11:45:00,55.5,50.7,30.09,South,188,11.0,16.0,84,0.00,,,0.00,Wunderground v.1.15,2013-12-05 16:45:00,
2013-12-05 11:55:00,55.6,50.8,30.09,South,170,10.0,28.0,84,0.00,,,0.00,Wunderground v.1.15,2013-12-05 16:55:00,
2013-12-05 12:00:00,55.5,50.7,30.09,SSE,163,11.0,11.0,84,0.00,,,0.00,Wunderground v.1.15,2013-12-05 17:00:00,
2013-12-05 12:10:00,55.5,51.1,30.08,SSE,167,10.0,12.0,85,0.00,,,0.00,Wunderground v.1.15,2013-12-05 17:10:00,
2013-12-05 12:15:00,55.4,50.6,30.08,SSE,167,10.0,13.0,84,0.00,,,0.00,Wunderground v.1.15,2013-12-05 17:15:00,
2013-12-05 12:25:00,55.3,50.9,30.08,South,169,11.0,15.0,85,0.00,,,0.00,Wunderground v.1.15,2013-12-05 17:25:00,
2013-12-05 12:30:00,55.3,50.9,30.07,South,178,10.0,13.0,85,0.00,,,0.00,Wunderground v.1.15,2013-12-05 17:30:00,
2013-12-05 12:35:00,55.2,50.8,30.08,South,178,11.0,13.0,85,0.00,,,0.00,Wunderground v.1.15,2013-12-05 17:35:00,
2013-12-05 12:40:00,55.1,50.7,30.07,South,182,10.0,12.0,85,0.00,,,0.00,Wunderground v.1.15,2013-12-05 17:40:00,
2013-12-05 12:45:00,55.1,50.7,30.06,SSE,152,9.0,12.0,85,0.00,,,0.00,Wunderground v.1.15,2013-12-05 17:45:00,
2013-12-05 12:50:00,55.0,50.9,30.06,SE,142,9.0,9.0,86,0.00,,,0.00,Wunderground v.1.15,2013-12-05 17:50:00,
2013-12-05 13:00:00,54.8,50.7,30.07,SSE,149,7.0,7.0,86,0.00,,,0.00,Wunderground v.1.15,2013-12-05 18:00:00,
2013-12-05 13:05:00,54.6,50.5,30.06,SSE,157,7.0,22.0,86,0.00,,,0.00,Wunderground v.1.15,2013-12-05 18:05:00,
2013-12-05 13:10:00,54.6,50.5,30.06,South,178,8.0,8.0,86,0.00,,,0.00,Wunderground v.1.15,2013-12-05 18:10:00,
2013-12-05 13:15:00,54.5,50.4,30.06,SSE,157,9.0,9.0,86,0.00,,,0.00,Wunderground v.1.15,2013-12-05 18:15:00,
2013-12-05 13:20:00,54.5,50.7,30.06,SSE,166,8.0,8.0,87,0.00,,,0.00,Wunderground v.1.15,2013-12-05 18:20:00,
2013-12-05 13:30:00,54.6,50.5,30.06,SSE,168,8.0,8.0,86,0.00,,,0.00,Wunderground v.1.15,2013-12-05 18:30:00,
2013-12-05 13:35:00,54.7,50.6,30.06,SSE,165,8.0,22.0,86,0.00,,,0.00,Wunderground v.1.15,2013-12-05 18:35:00,
2013-12-05 13:40:00,54.6,50.8,30.07,SE,126,7.0,22.0,87,0.00,,,0.00,Wunderground v.1.15,2013-12-05 18:40:00,
2013-12-05 13:45:00,54.6,50.8,30.06,SE,142,6.0,22.0,87,0.00,,,0.00,Wunderground v.1.15,2013-12-05 18:45:00,
2013-12-05 13:50:00,54.6,50.8,30.06,SSE,168,7.0,7.0,87,0.00,,,0.00,Wunderground v.1.15,2013-12-05 18:50:00,
2013-12-05 13:55:00,54.8,51.0,30.06,South,178,7.0,9.0,87,0.00,,,0.00,Wunderground v.1.15,2013-12-05 18:55:00,
2013-12-05 14:05:00,55.1,51.0,30.06,SSE,151,7.0,22.0,86,0.00,,,0.00,Wunderground v.1.15,2013-12-05 19:05:00,
2013-12-05 14:10:00,55.2,51.4,30.06,SSE,159,6.0,22.0,87,0.00,,,0.00,Wunderground v.1.15,2013-12-05 19:10:00,
2013-12-05 14:15:00,55.3,51.5,30.06,SSE,163,6.0,22.0,87,0.00,,,0.00,Wunderground v.1.15,2013-12-05 19:15:00,
2013-12-05 14:20:00,55.5,51.4,30.06,SSE,158,6.0,6.0,86,0.00,,,0.00,Wunderground v.1.15,2013-12-05 19:20:00,
2013-12-05 14:25:00,55.5,51.4,30.06,South,178,6.0,9.0,86,0.00,,,0.00,Wunderground v.1.15,2013-12-05 19:25:00,
2013-12-05 14:35:00,55.5,51.7,30.06,SSE,163,5.0,7.0,87,0.00,,,0.00,Wunderground v.1.15,2013-12-05 19:35:00,
2013-12-05 14:40:00,55.8,52.0,30.06,SSW,207,6.0,22.0,87,0.00,,,0.00,Wunderground v.1.15,2013-12-05 19:40:00,
2013-12-05 14:45:00,56.2,52.1,30.06,South,177,7.0,22.0,86,0.00,,,0.00,Wunderground v.1.15,2013-12-05 19:45:00,
2013-12-05 14:50:00,56.5,52.0,30.06,South,180,7.0,22.0,85,0.00,,,0.00,Wunderground v.1.15,2013-12-05 19:50:00,
2013-12-05 14:55:00,56.7,52.2,30.06,SSE,155,7.0,22.0,85,0.00,,,0.00,Wunderground v.1.15,2013-12-05 19:55:00,
2013-12-05 15:00:00,56.9,52.1,30.06,South,175,8.0,8.0,84,0.00,,,0.00,Wunderground v.1.15,2013-12-05 20:00:00,
2013-12-05 15:05:00,56.9,52.4,30.06,South,178,8.0,9.0,85,0.00,,,0.00,Wunderground v.1.15,2013-12-05 20:05:00,
2013-12-05 15:10:00,57.0,52.5,30.06,South,184,8.0,22.0,85,0.00,,,0.00,Wunderground v.1.15,2013-12-05 20:10:00,
2013-12-05 15:15:00,57.1,52.3,30.06,SSW,197,8.0,22.0,84,0.00,,,0.00,Wunderground v.1.15,2013-12-05 20:15:00,
2013-12-05 15:20:00,57.1,52.3,30.06,SSE,166,8.0,8.0,84,0.00,,,0.00,Wunderground v.1.15,2013-12-05 20:20:00,
2013-12-05 15:30:00,56.9,52.1,30.06,South,186,8.0,22.0,84,0.00,,,0.00,Wunderground v.1.15,2013-12-05 20:30:00,
2013-12-05 15:40:00,56.9,52.1,30.06,SE,145,9.0,9.0,84,0.00,,,0.00,Wunderground v.1.15,2013-12-05 20:40:00,
2013-12-05 15:45:00,56.7,52.2,30.06,SSW,197,8.0,22.0,85,0.00,,,0.00,Wunderground v.1.15,2013-12-05 20:45:00,
2013-12-05 15:50:00,56.6,52.1,30.06,South,188,9.0,22.0,85,0.00,,,0.00,Wunderground v.1.15,2013-12-05 20:50:00,
2013-12-05 16:00:00,56.4,51.9,30.06,South,172,9.0,9.0,85,0.00,,,0.00,Wunderground v.1.15,2013-12-05 21:00:00,
2013-12-05 16:05:00,56.2,51.7,30.06,South,182,8.0,10.0,85,0.00,,,0.00,Wunderground v.1.15,2013-12-05 21:05:00,
2013-12-05 16:15:00,56.1,52.0,30.07,SSE,161,7.0,22.0,86,0.00,,,0.00,Wunderground v.1.15,2013-12-05 21:15:00,
2013-12-05 16:20:00,56.2,52.1,30.07,South,173,8.0,8.0,86,0.00,,,0.00,Wunderground v.1.15,2013-12-05 21:20:00,
2013-12-05 16:25:00,56.0,51.9,30.07,South,182,8.0,22.0,86,0.00,,,0.00,Wunderground v.1.15,2013-12-05 21:25:00,
2013-12-05 16:30:00,55.9,51.8,30.07,SSW,195,7.0,22.0,86,0.00,,,0.00,Wunderground v.1.15,2013-12-05 21:30:00,
2013-12-05 16:35:00,55.9,51.8,30.08,SSW,193,8.0,22.0,86,0.00,,,0.00,Wunderground v.1.15,2013-12-05 21:35:00,
2013-12-05 16:45:00,55.9,51.8,30.08,SSE,163,7.0,22.0,86,0.00,,,0.00,Wunderground v.1.15,2013-12-05 21:45:00,
2013-12-05 16:50:00,55.9,51.8,30.08,SSW,194,7.0,22.0,86,0.00,,,0.00,Wunderground v.1.15,2013-12-05 21:50:00,
2013-12-05 16:55:00,55.9,51.8,30.08,SSW,193,8.0,22.0,86,0.00,,,0.00,Wunderground v.1.15,2013-12-05 21:55:00,
2013-12-05 17:00:00,55.9,51.8,30.07,South,186,8.0,22.0,86,0.00,,,0.00,Wunderground v.1.15,2013-12-05 22:00:00,
2013-12-05 17:10:00,55.8,51.7,30.08,SW,217,6.0,6.0,86,0.00,,,0.00,Wunderground v.1.15,2013-12-05 22:10:00,
2013-12-05 17:20:00,55.8,52.0,30.09,WNW,289,5.0,5.0,87,0.00,,,0.00,Wunderground v.1.15,2013-12-05 22:20:00,
2013-12-05 17:25:00,56.0,52.2,30.09,SW,234,4.0,6.0,87,0.00,,,0.00,Wunderground v.1.15,2013-12-05 22:25:00,
2013-12-05 17:30:00,56.1,52.3,30.10,NW,313,5.0,22.0,87,0.00,,,0.00,Wunderground v.1.15,2013-12-05 22:30:00,
2013-12-05 17:35:00,55.7,51.6,30.10,NW,318,7.0,22.0,86,0.00,,,0.00,Wunderground v.1.15,2013-12-05 22:35:00,
2013-12-05 17:40:00,55.2,51.4,30.11,WNW,302,7.0,22.0,87,0.00,,,0.00,Wunderground v.1.15,2013-12-05 22:40:00,
2013-12-05 17:50:00,52.4,48.0,30.12,NW,304,10.0,22.0,85,0.00,,,0.00,Wunderground v.1.15,2013-12-05 22:50:00,
2013-12-05 17:55:00,51.3,46.9,30.13,NW,309,11.0,22.0,85,0.00,,,0.00,Wunderground v.1.15,2013-12-05 22:55:00,
2013-12-05 18:00:00,50.7,46.4,30.13,NW,310,9.0,9.0,85,0.00,,,0.00,Wunderground v.1.15,2013-12-05 23:00:00,
2013-12-05 18:10:00,50.1,45.5,30.13,West,272,7.0,7.0,84,0.00,,,0.00,Wunderground v.1.15,2013-12-05 23:10:00,
2013-12-05 18:15:00,49.9,45.3,30.13,NW,310,7.0,8.0,84,0.00,,,0.00,Wunderground v.1.15,2013-12-05 23:15:00,
2013-12-05 18:25:00,49.6,44.6,30.14,WNW,296,9.0,12.0,83,0.00,,,0.00,Wunderground v.1.15,2013-12-05 23:25:00,
2013-12-05 18:30:00,49.5,44.6,30.14,West,275,8.0,8.0,83,0.00,,,0.00,Wunderground v.1.15,2013-12-05 23:30:00,
2013-12-05 18:35:00,49.2,44.3,30.14,WNW,294,8.0,10.0,83,0.00,,,0.00,Wunderground v.1.15,2013-12-05 23:35:00,
2013-12-05 18:40:00,49.1,43.8,30.15,NW,309,8.0,11.0,82,0.00,,,0.00,Wunderground v.1.15,2013-12-05 23:40:00,
2013-12-05 18:45:00,49.1,42.5,30.15,West,277,10.0,11.0,78,0.00,,,0.00,Wunderground v.1.15,2013-12-05 23:45:00,
2013-12-05 18:55:00,49.0,40.7,30.15,WNW,297,10.0,10.0,73,0.00,,,0.00,Wunderground v.1.15,2013-12-05 23:55:00,
2013-12-05 19:00:00,48.9,40.3,30.16,WNW,298,9.0,10.0,72,0.00,,,0.00,Wunderground v.1.15,2013-12-06 00:00:00,
2013-12-05 19:05:00,48.7,40.1,30.16,West,263,9.0,21.0,72,0.00,,,0.00,Wunderground v.1.15,2013-12-06 00:05:00,
2013-12-05 19:10:00,48.7,40.1,30.17,WSW,250,8.0,8.0,72,0.00,,,0.00,Wunderground v.1.15,2013-12-06 00:10:00,
2013-12-05 19:15:00,48.5,40.2,30.18,WNW,301,7.0,21.0,73,0.00,,,0.00,Wunderground v.1.15,2013-12-06 00:15:00,
2013-12-05 19:20:00,48.1,40.2,30.18,West,273,7.0,21.0,74,0.00,,,0.00,Wunderground v.1.15,2013-12-06 00:20:00,
2013-12-05 19:30:00,47.4,39.9,30.18,West,267,7.0,7.0,75,0.00,,,0.00,Wunderground v.1.15,2013-12-06 00:30:00,
2013-12-05 19:35:00,47.1,39.9,30.18,WNW,290,5.0,21.0,76,0.00,,,0.00,Wunderground v.1.15,2013-12-06 00:35:00,